الصفحة الرئيسية
صور الأقمار الصناعية توقعات الطقس لمدة 15 يوممناخالتوقعات البحرية إعصار برق مطارأسئلة وأجوبة النشرة الإخبارية حول
طقس : أوروبا أفريقيا أمريكا الشمالية أمريكا الجنوبية آسيا أستراليا-أوقيانوسيا آخرون
لغات جهة اتصال

مدينة همدان, إيران

دائرة عرض: 34-52-05N, خط طول: 048-33-08E, ارتفاع: 1757 m


METAR: OIHH 251558Z 00000KT CAVOK 12/M04 Q1020
TAF: فقد

زمن: 20:14 (16:44 UTC)

مراقبة الطقس الحالي

تاريخ و وقت الإصدار 46 دقيقة قبل الساعة 15:58 UTC
ريح أي الرياح هادئة
درجة الحرارة 12°C
الرطوبة 32%
ضغط 1020 hPa
الرؤية 10 كم أو أكثر
الغيوم لا تقل 1500 م وليس السحاب الأسود

تغيير وحدة
المعلومات الواردة في هذا الموقع يخضع إخلاء
طقس : أوروبا أفريقيا أمريكا الشمالية أمريكا الجنوبية آسيا أستراليا-أوقيانوسيا آخرون
صور الأقمار الصناعية توقعات الطقس لمدة 15 يوممناخالتوقعات البحرية إعصار برق مطارأسئلة وأجوبة لغات جهة اتصال النشرة الإخبارية حول